Date String (YYYY-MM-DD hh:mm:ss) UTC,Instrument flags,Ambient pressure (hPa),Sample flow (lpm),Bypass flow (lpm),Sample temperature (°C),Ambient temperature (°C),ASC tube jacket temperature (°C),LED temperature (°C),Box temperature (°C),Sample RH (%),Span deviation,Mass concentration (μg/m³),Mass concentration (μg/m³),Mass concentration (μg/m³)
DateTimeUTC,F1_M11,P_M11,Q1_M11,Q2_M11,T1_M11,T2_M11,T3_M11,T4_M11,T5_M11,U1_M11,ZSPAN_M11,X0_M11,X2_M11,X1_M11
2021-12-31 18:00:00,,0811.6,5.01,0.00,21.1,22.6,00.0,30.0,23.0,18.8,0004.1,0013.65,0007.96,0007.24
2021-12-31 18:01:00,,0811.6,4.99,0.00,21.0,22.0,00.0,30.0,22.7,18.7,0004.2,0012.91,0007.42,0006.70
2021-12-31 18:02:00,,0811.6,5.01,0.00,21.0,21.5,00.0,30.0,22.5,18.8,0004.4,0011.87,0007.00,0006.29
2021-12-31 18:03:00,,0811.6,5.00,0.00,20.8,21.1,00.0,30.0,22.3,18.9,0004.6,0011.63,0006.78,0006.03
2021-12-31 18:04:00,,0811.6,4.98,0.00,20.7,20.7,00.0,29.9,22.1,19.0,0004.6,0011.59,0006.70,0005.94
2021-12-31 18:05:00,,0811.6,5.00,0.00,20.6,20.3,00.0,29.9,21.9,19.2,0004.7,0011.92,0006.83,0006.04
2021-12-31 18:06:00,,0811.5,5.01,0.00,20.5,20.1,00.0,29.9,21.8,19.4,0005.0,0012.36,0007.10,0006.29
2021-12-31 18:07:00,,0811.6,4.99,0.00,20.4,19.9,00.0,29.8,21.7,19.5,0004.9,0012.90,0007.44,0006.59
2021-12-31 18:08:00,,0811.5,5.01,0.00,20.5,20.6,00.0,29.8,22.0,19.4,0004.7,0013.46,0007.85,0006.95
2021-12-31 18:09:00,,0811.5,4.99,0.00,20.7,21.7,00.0,29.9,22.5,19.2,0004.8,0014.00,0008.28,0007.33
2021-12-31 18:10:00,,0811.6,5.00,0.00,20.9,22.3,00.0,29.9,22.8,19.0,0004.5,0014.92,0008.78,0007.76
2021-12-31 18:11:00,,0811.5,5.00,0.00,21.0,22.0,00.0,29.9,22.8,19.0,0003.9,0015.52,0009.18,0008.17
2021-12-31 18:12:00,,0811.6,4.99,0.00,20.9,21.5,00.0,29.9,22.5,18.9,0003.7,0015.94,0009.53,0008.51
2021-12-31 18:13:00,,0811.5,5.02,0.00,20.8,21.1,00.0,29.9,22.3,18.8,0003.8,0016.23,0009.74,0008.71
2021-12-31 18:14:00,,0811.4,5.00,0.00,20.7,20.6,00.0,29.9,22.1,18.8,0003.6,0016.42,0009.86,0008.82
2021-12-31 18:15:00,,0811.2,5.00,0.00,20.6,20.3,00.0,29.9,21.9,18.8,0003.6,0016.47,0009.89,0008.85
2021-12-31 18:16:00,,0811.2,4.99,0.00,20.5,20.0,00.0,29.8,21.8,18.9,0003.5,0015.86,0009.88,0008.90
2021-12-31 18:17:00,,0811.1,4.99,0.00,20.4,20.0,00.0,29.8,21.7,19.1,0003.3,0015.44,0009.93,0008.94
2021-12-31 18:18:00,,0811.2,5.00,0.00,20.6,21.0,00.0,29.8,22.2,18.9,0002.7,0015.46,0010.05,0009.09
2021-12-31 18:19:00,,0811.2,5.01,0.00,20.8,22.0,00.0,29.9,22.6,18.7,0002.7,0015.66,0010.22,0009.24
2021-12-31 18:20:00,,0811.4,4.99,0.00,21.0,22.7,00.0,29.9,23.0,18.5,0002.5,0016.82,0010.71,0009.68
2021-12-31 18:21:00,,0811.4,5.00,0.00,21.1,22.3,00.0,30.0,22.9,18.4,0002.9,0017.77,0011.26,0010.19
2021-12-31 18:22:00,,0811.4,5.01,0.00,21.0,21.6,00.0,30.0,22.6,18.6,0003.3,0018.12,0011.63,0010.53
2021-12-31 18:23:00,,0811.2,4.99,0.00,20.9,21.1,00.0,30.0,22.4,18.6,0003.3,0018.80,0012.19,0011.06
2021-12-31 18:24:00,,0811.2,5.00,0.00,20.8,20.7,00.0,29.9,22.1,18.8,0002.8,0019.65,0012.91,0011.73
2021-12-31 18:25:00,,0811.0,5.00,0.00,20.7,20.4,00.0,29.9,22.0,18.9,0003.0,0020.65,0013.78,0012.58
2021-12-31 18:26:00,,0811.0,5.00,0.00,20.6,20.2,00.0,29.9,21.9,19.1,0003.4,0022.10,0014.79,0013.53
2021-12-31 18:27:00,,0811.1,5.00,0.00,20.6,20.1,00.0,29.8,21.9,19.2,0003.8,0023.76,0015.79,0014.44
2021-12-31 18:28:00,,0811.2,5.01,0.00,20.6,20.5,00.0,29.8,22.1,19.4,0004.0,0025.22,0016.70,0015.27
2021-12-31 18:29:00,,0811.3,4.99,0.00,20.8,21.6,00.0,29.9,22.5,19.3,0003.9,0026.49,0017.32,0015.87
2021-12-31 18:30:00,,0811.2,5.01,0.00,21.0,22.5,00.0,29.9,22.9,19.1,0003.9,0027.00,0017.65,0016.24
2021-12-31 18:31:00,,0811.2,4.99,0.00,21.1,22.2,00.0,30.0,22.9,18.9,0004.1,0026.87,0017.63,0016.24
2021-12-31 18:32:00,,0811.2,4.99,0.00,21.0,21.7,00.0,30.0,22.6,18.9,0004.2,0026.08,0017.39,0016.06
2021-12-31 18:33:00,,0811.0,5.01,0.00,20.9,21.2,00.0,30.0,22.4,18.9,0004.3,0026.16,0017.42,0016.03
2021-12-31 18:34:00,,0811.0,4.99,0.00,20.9,20.9,00.0,30.0,22.3,18.9,0004.3,0025.90,0017.24,0015.89
2021-12-31 18:35:00,,0811.0,5.01,0.00,20.8,20.6,00.0,30.0,22.2,19.1,0004.4,0025.75,0017.13,0015.79
2021-12-31 18:36:00,,0811.0,4.99,0.00,20.7,20.3,00.0,29.9,22.1,19.2,0004.2,0025.34,0016.77,0015.44
2021-12-31 18:37:00,,0811.1,5.01,0.00,20.7,20.1,00.0,29.9,22.0,19.3,0003.9,0023.91,0015.84,0014.59
2021-12-31 18:38:00,,0811.0,4.99,0.00,20.6,19.9,00.0,29.9,21.8,19.4,0003.4,0021.97,0014.57,0013.40
2021-12-31 18:39:00,,0811.0,5.01,0.00,20.6,20.7,00.0,29.9,22.2,19.4,0003.4,0020.04,0013.29,0012.21
2021-12-31 18:40:00,,0811.0,5.00,0.00,20.8,21.9,00.0,29.9,22.6,19.2,0003.4,0018.57,0012.15,0011.12
2021-12-31 18:41:00,,0811.0,4.99,0.00,21.0,22.5,00.0,30.0,22.9,19.0,0003.1,0017.41,0011.20,0010.16
2021-12-31 18:42:00,,0810.9,5.00,0.00,21.1,22.1,00.0,30.0,22.8,19.0,0002.8,0015.88,0010.32,0009.34
2021-12-31 18:43:00,,0810.8,5.01,0.00,21.0,21.6,00.0,30.0,22.6,19.1,0002.1,0014.92,0009.58,0008.64
2021-12-31 18:44:00,,0810.9,5.00,0.00,20.9,21.1,00.0,30.0,22.4,19.2,0002.0,0013.84,0008.79,0007.95
2021-12-31 18:45:00,,0810.9,5.00,0.00,20.8,20.7,00.0,30.0,22.2,19.4,0002.4,0012.93,0008.03,0007.21
2021-12-31 18:46:00,,0810.8,5.01,0.00,20.8,20.3,00.0,30.0,22.1,19.4,0002.3,0011.79,0007.09,0006.34
2021-12-31 18:47:00,,0810.8,5.01,0.00,20.7,20.1,00.0,29.9,22.0,19.5,0002.5,0010.71,0006.25,0005.55
2021-12-31 18:48:00,,0810.7,4.99,0.00,20.6,19.9,00.0,29.9,21.9,19.6,0002.0,0010.16,0005.84,0005.16
2021-12-31 18:49:00,,0810.8,5.01,0.00,20.5,20.0,00.0,29.9,21.8,19.7,0002.3,0009.89,0005.66,0005.02
2021-12-31 18:50:00,,0810.7,4.99,0.00,20.6,21.1,00.0,29.9,22.3,19.6,0001.9,0009.76,0005.50,0004.83
2021-12-31 18:51:00,,0810.7,5.00,0.00,20.9,22.1,00.0,29.9,22.7,19.3,0002.4,0009.35,0005.35,0004.68
2021-12-31 18:52:00,,0810.6,5.00,0.00,21.0,22.4,00.0,30.0,22.9,19.1,0002.6,0008.91,0005.21,0004.57
2021-12-31 18:53:00,,0810.6,4.99,0.00,21.0,21.9,00.0,30.0,22.7,19.1,0002.6,0008.81,0005.13,0004.50
2021-12-31 18:54:00,,0810.6,5.00,0.00,21.0,21.4,00.0,30.0,22.5,19.1,0002.3,0009.00,0005.06,0004.41
2021-12-31 18:55:00,,0810.6,5.01,0.00,20.9,21.0,00.0,30.0,22.4,19.1,0002.9,0009.39,0004.99,0004.35
2021-12-31 18:56:00,,0810.5,5.01,0.00,20.8,20.7,00.0,30.0,22.2,19.2,0002.6,0009.19,0004.90,0004.32
2021-12-31 18:57:00,,0810.5,5.00,0.00,20.7,20.4,00.0,29.9,22.1,19.3,0001.3,0009.35,0004.92,0004.32
2021-12-31 18:58:00,,0810.4,5.00,0.00,20.7,20.2,00.0,29.9,22.0,19.3,0003.4,0009.66,0005.05,0004.38
2021-12-31 18:59:00,,0810.3,5.00,0.00,20.6,20.0,00.0,29.9,21.9,19.3,0003.9,0009.93,0005.20,0004.49
